Location: Gleizolles
(44.4833°N, 6.7667°E)
Time: 22:04:18
(UTC+00:00)

Explorer 7 - Pass Details

Date: 24 June 2024
Orbit: 465 x 619 km, 50.3° (Epoch: 19 July)

Event Time Altitude Azimuth Distance (km) Brightness Sun altitude
Rises 09:58:02 0° 238° (WSW) 2,717 10.3 61.0°
Reaches altitude 10° 10:00:19 10° 238° (WSW) 1,798 9.5 61.3°
Maximum altitude 10:04:24 82° 151° (SSE) 529 8.4 61.9°
Drops below altitude 10° 10:08:17 10° 64° (ENE) 1,711 9.6 62.4°
Sets 10:10:25 0° 63° (ENE) 2,573 10.4 62.7°
